Weather History for KFOT - May, 2014

Change the Weather History Date:

Thursday, May 29, 2014

  Actual Average (KEKA) Record (KEKA)
Temperature  
Mean Temperature 54 °F 55 °F  
Max Temperature 60 °F 61 °F 77 °F (1993)
Min Temperature 48 °F 49 °F 42 °F (1979)
Degree Days  
Heating Degree Days 11 10  
Month to date heating degree days 328  
Since 1 July heating degree days 4149  
Cooling Degree Days 0 0  
Month to date cooling degree days 0  
Year to date cooling degree days 0  
Growing Degree Days 4 (Base 50)    
Moisture  
Dew Point 49 °F    
Average Humidity 82    
Maximum Humidity 100    
Minimum Humidity 63    
Precipitation  
Precipitation 0.00 in 0.05 in 0.40 in (1948)
Month to date precipitation 1.69  
Year to date precipitation 22.44  
Snow  
Snow 0.00 in 0.00 in - ()
Month to date snowfall 0.0  
Since 1 July snowfall 0.2  
Snow Depth -    
Sea Level Pressure  
Sea Level Pressure 30.07 in    
Wind  
Wind Speed 9 mph (WNW)    
Max Wind Speed 17 mph    
Max Gust Speed 24 mph    
Visibility 9 miles    
Events      
T = Trace of Precipitation, MM = Missing Value Source: NWS Daily Summary

Daily Weather History Graph

Daily Weather History Graph

Search for Another Location

Airport or City:

Trip Planner

Search our weather history database for the weather conditions in past years. The results will help you decide how hot, cold, wet, or windy it might be!

Date:

Astronomy

May. 29, 2014 Rise Set
Actual Time 5:49 AM PDT 8:38 PM PDT
Civil Twilight 5:17 AM PDT 9:11 PM PDT
Nautical Twilight 4:36 AM PDT 9:52 PM PDT
Astronomical Twilight 3:49 AM PDT 10:38 PM PDT
Moon 6:47 AM PDT (5/29) 9:33 PM PDT (5/29)
Length of Visible Light 15h 54m
Length of Day
14h 49m
New Moon, 1% of the Moon is Illuminated
May 29
New Moon
Jun 5
First Quarter
Jun 12
Full
Jun 19
Last Quarter
Jun 27
New

Hourly Weather History & Observations

Time (PDT) Temp. Dew Point Humidity Pressure Visibility Wind Dir Wind Speed Gust Speed Precip Events Conditions
12:15 AM 50.0 °F 48.2 °F 94% 30.19 in 10.0 mi WNW 8.1 mph - N/A   Overcast
12:35 AM 50.0 °F 48.2 °F 94% 30.18 in 10.0 mi WNW 11.5 mph - N/A   Overcast
12:55 AM 50.0 °F 48.2 °F 94% 30.18 in 10.0 mi NW 10.4 mph - N/A   Overcast
1:15 AM 50.0 °F 48.2 °F 94% 30.18 in 10.0 mi NW 9.2 mph - N/A   Overcast
1:35 AM 50.0 °F 48.2 °F 94% 30.18 in 10.0 mi WNW 8.1 mph - N/A   Overcast
2:15 AM 50.0 °F 48.2 °F 94% 30.17 in 10.0 mi WNW 9.2 mph - N/A   Overcast
2:35 AM 50.0 °F 48.2 °F 94% 30.16 in 10.0 mi NW 9.2 mph - N/A   Overcast
2:55 AM 50.0 °F 48.2 °F 94% 30.15 in 10.0 mi NW 8.1 mph - N/A   Overcast
3:15 AM 50.0 °F 48.2 °F 94% 30.15 in 10.0 mi NW 6.9 mph - N/A   Overcast
3:35 AM 50.0 °F 48.2 °F 94% 30.15 in 9.0 mi WNW 6.9 mph - N/A   Overcast
3:55 AM 50.0 °F 48.2 °F 94% 30.14 in 8.0 mi WNW 5.8 mph - N/A   Overcast
4:15 AM 50.0 °F 48.2 °F 94% 30.13 in 8.0 mi NW 4.6 mph - N/A   Overcast
4:35 AM 50.0 °F 48.2 °F 94% 30.13 in 10.0 mi WNW 3.5 mph - N/A   Overcast
4:55 AM 50.0 °F 48.2 °F 94% 30.12 in 10.0 mi WNW 4.6 mph - N/A   Overcast
5:15 AM 50.0 °F 48.2 °F 94% 30.11 in 10.0 mi NW 5.8 mph - N/A   Overcast
5:35 AM 50.0 °F 48.2 °F 94% 30.10 in 10.0 mi NW 5.8 mph - N/A   Overcast
5:55 AM 50.0 °F 48.2 °F 94% 30.10 in 9.0 mi WNW 3.5 mph - N/A   Overcast
6:15 AM 48.2 °F 48.2 °F 100% 30.10 in 7.0 mi WNW 3.5 mph - N/A   Overcast
6:35 AM 48.2 °F 48.2 °F 100% 30.10 in 7.0 mi Calm Calm - N/A   Overcast
6:55 AM 48.2 °F 48.2 °F 100% 30.09 in 7.0 mi Calm Calm - N/A   Overcast
7:15 AM 48.2 °F 48.2 °F 100% 30.09 in 7.0 mi NW 3.5 mph - N/A   Overcast
7:35 AM 48.2 °F 48.2 °F 100% 30.08 in 6.0 mi Calm Calm - N/A   Mostly Cloudy
7:55 AM 50.0 °F 48.2 °F 94% 30.08 in 9.0 mi Calm Calm - N/A   Clear
8:15 AM 50.0 °F 48.2 °F 94% 30.08 in 9.0 mi Calm Calm - N/A   Partly Cloudy
8:35 AM 51.8 °F 48.2 °F 88% 30.08 in 10.0 mi NW 3.5 mph - N/A   Partly Cloudy
8:55 AM 53.6 °F 48.2 °F 82% 30.08 in 10.0 mi West 3.5 mph - N/A   Scattered Clouds
9:15 AM 53.6 °F 48.2 °F 82% 30.08 in 10.0 mi WNW 6.9 mph - N/A   Mostly Cloudy
9:35 AM 55.4 °F 48.2 °F 77% 30.08 in 10.0 mi WNW 8.1 mph - N/A   Partly Cloudy
9:55 AM 57.2 °F 50.0 °F 77% 30.07 in 10.0 mi WNW 9.2 mph - N/A   Clear
10:15 AM 59.0 °F 48.2 °F 67% 30.06 in 10.0 mi WNW 10.4 mph - N/A   Clear
10:35 AM 59.0 °F 48.2 °F 67% 30.06 in 10.0 mi WNW 11.5 mph - N/A   Clear
11:15 AM 57.2 °F 48.2 °F 72% 30.06 in 10.0 mi WNW 13.8 mph 20.7 mph N/A   Clear
11:35 AM 59.0 °F 48.2 °F 67% 30.06 in 10.0 mi WNW 15.0 mph - N/A   Clear
11:55 AM 59.0 °F 48.2 °F 67% 30.06 in 10.0 mi WNW 15.0 mph 19.6 mph N/A   Clear
12:15 PM 60.8 °F 48.2 °F 63% 30.06 in 10.0 mi WNW 15.0 mph - N/A   Clear
12:35 PM 60.8 °F 48.2 °F 63% 30.05 in 10.0 mi WNW 16.1 mph 21.9 mph N/A   Clear
12:55 PM 60.8 °F 48.2 °F 63% 30.05 in 10.0 mi WNW 17.3 mph 20.7 mph N/A   Clear
1:15 PM 59.0 °F 48.2 °F 67% 30.05 in 10.0 mi WNW 16.1 mph 23.0 mph N/A   Clear
1:35 PM 60.8 °F 50.0 °F 68% 30.05 in 10.0 mi WNW 16.1 mph 21.9 mph N/A   Clear
1:55 PM 60.8 °F 50.0 °F 68% 30.05 in 10.0 mi WNW 15.0 mph 20.7 mph N/A   Clear
2:15 PM 60.8 °F 50.0 °F 68% 30.05 in 10.0 mi West 16.1 mph 20.7 mph N/A   Clear
2:35 PM 60.8 °F 50.0 °F 68% 30.05 in 10.0 mi WNW 16.1 mph 20.7 mph N/A   Clear
2:55 PM 60.8 °F 50.0 °F 68% 30.05 in 10.0 mi WNW 15.0 mph 20.7 mph N/A   Clear
3:15 PM 60.8 °F 50.0 °F 68% 30.04 in 10.0 mi West 15.0 mph 24.2 mph N/A   Clear
3:35 PM 59.0 °F 50.0 °F 72% 30.04 in 10.0 mi WNW 16.1 mph 21.9 mph N/A   Clear
3:55 PM 59.0 °F 50.0 °F 72% 30.04 in 10.0 mi WNW 17.3 mph 21.9 mph N/A   Clear
4:15 PM 59.0 °F 50.0 °F 72% 30.03 in 10.0 mi WNW 13.8 mph 19.6 mph N/A   Clear
4:35 PM 59.0 °F 50.0 °F 72% 30.03 in 10.0 mi WNW 15.0 mph - N/A   Clear
4:55 PM 59.0 °F 50.0 °F 72% 30.03 in 10.0 mi WNW 17.3 mph 23.0 mph N/A   Clear
5:15 PM 59.0 °F 48.2 °F 67% 30.03 in 10.0 mi WNW 15.0 mph 23.0 mph N/A   Clear
5:35 PM 57.2 °F 48.2 °F 72% 30.03 in 10.0 mi WNW 17.3 mph 23.0 mph N/A   Clear
5:55 PM 57.2 °F 48.2 °F 72% 30.03 in 10.0 mi WNW 17.3 mph 23.0 mph N/A   Clear
6:15 PM 57.2 °F 48.2 °F 72% 30.02 in 10.0 mi WNW 15.0 mph 21.9 mph N/A   Clear
6:35 PM 55.4 °F 48.2 °F 77% 30.02 in 9.0 mi WNW 15.0 mph 20.7 mph N/A   Clear
6:55 PM 55.4 °F 48.2 °F 77% 30.03 in 9.0 mi WNW 15.0 mph 20.7 mph N/A   Clear
7:15 PM 55.4 °F 48.2 °F 77% 30.03 in 9.0 mi WNW 13.8 mph - N/A   Scattered Clouds
7:35 PM 53.6 °F 48.2 °F 82% 30.03 in 8.0 mi WNW 13.8 mph 18.4 mph N/A   Mostly Cloudy
7:55 PM 53.6 °F 48.2 °F 82% 30.04 in 8.0 mi WNW 10.4 mph - N/A   Mostly Cloudy
8:15 PM 53.6 °F 48.2 °F 82% 30.03 in 8.0 mi NW 9.2 mph - N/A   Mostly Cloudy
8:35 PM 53.6 °F 48.2 °F 82% 30.04 in 8.0 mi WNW 9.2 mph - N/A   Overcast
8:55 PM 53.6 °F 48.2 °F 82% 30.04 in 8.0 mi WNW 8.1 mph - N/A   Overcast
9:15 PM 53.6 °F 48.2 °F 82% 30.03 in 9.0 mi WNW 8.1 mph - N/A   Overcast
9:35 PM 53.6 °F 48.2 °F 82% 30.03 in 8.0 mi WNW 6.9 mph - N/A   Overcast
9:55 PM 51.8 °F 48.2 °F 88% 30.04 in 9.0 mi NW 4.6 mph - N/A   Overcast
10:15 PM 51.8 °F 48.2 °F 88% 30.04 in 9.0 mi WNW 3.5 mph - N/A   Overcast
10:35 PM 51.8 °F 48.2 °F 88% 30.04 in 8.0 mi NW 3.5 mph - N/A   Overcast
10:55 PM 51.8 °F 48.2 °F 88% 30.03 in 8.0 mi NNW 4.6 mph - N/A   Overcast
11:15 PM 51.8 °F 48.2 °F 88% 30.02 in 9.0 mi WNW 3.5 mph - N/A   Overcast
11:35 PM 51.8 °F 48.2 °F 88% 30.02 in 9.0 mi NW 3.5 mph - N/A   Overcast
11:55 PM 51.8 °F 48.2 °F 88% 30.01 in 9.0 mi West 5.8 mph - N/A   Overcast